Find Starlink 36932

NORAD ID: 68331 Int'l Des: 2026-059 Owner: SPXS Country: US Constellation: starlink operational
LEOCIRCULAR

实时位置

正在加载3D地球...

关于 Starlink 36932

正在加载描述...

即将过境

Passes for default location (London). Set your location on the main map for personalized predictions.

高度历史

Loading altitude history...

两行轨道根数

1 68331U 26059L 26127.13012554 .00066485 00000-0 11914-2 0 9999
2 68331 53.1593 74.6393 0001053 86.6848 273.4281 15.49353515 7151
Epoch: May 7, 2026 • Age: 12 hours

当前状态

高度 431.9 km
速度 7.65 km/s
星下点 -39.36°S, 60.18°W
发射日期 Mar 22, 2026
运行时间 0.1 years
类型 internet

技术详情

分类 Payload
质量 575.00 kg
干质量 530.00 kg
总质量 575.00 kg
长度 0.30 m
直径 4.10 m
跨度 29.00 m
形状 Box + pan
制造商 SPXS
平台类型 Starlink V2MO
阶段状态 In Orbit
所有者/国家 SPXS/US

Most Searched